Location: De Wilgen
(53.1001°N, 6.0313°E)
Time: 14:22:58
(UTC+00:00)

Daily predictions for brighter satellites

Satellite Brightness Start Highest point End
(mag) Time Altitude Azimuth Time Altitude Azimuth Time Altitude Azimuth
BREEZE-M DEB (TANK) 4.0 20:37:19 10° SW 20:41:10 43° SE 20:53:42 10° ENE
S3M 4.3 20:46:47 10° NNW 20:53:11 75° W 20:59:27 10° S
USA 281 4.0 20:49:04 10° ESE 20:55:14 45° NE 21:01:25 10° NNW
Ariane Rocket 3.1 20:50:15 10° SSE 20:55:21 81° WSW 21:00:30 10° NNW
Timation 1 Rocket 4.4 20:51:44 10° SSW 20:57:35 63° ESE 21:03:30 10° NE
Okean 1-7 4.4 20:54:12 10° SE 20:57:38 24° E 21:01:05 10° NE
SL-27 R/B 2.8 20:55:31 10° S 20:57:58 29° ESE 21:00:29 10° NE
Cosmos 2219 Rocket 2.5 20:55:08 10° NNW 21:00:49 66° NE 21:06:28 10° SE
Cosmos 1400 Rocket 2.8 20:57:54 10° SSW 21:01:46 86° W 21:05:38 10° NNE
COSMOS 2428 3.7 20:57:01 10° NNW 21:02:24 40° NE 21:07:45 10° ESE
BREEZE-M DEB (TANK) 3.2 21:02:33 10° WSW 21:04:17 22° SSW 21:06:35 10° SE
Cosmos 1356 Rocket 3.6 21:01:05 10° S 21:05:13 60° E 21:09:23 10° NNE
Cosmos 2266 Rocket 4.2 21:00:40 10° SSW 21:07:01 81° W 21:13:29 10° N
USA 245 4.5 21:03:42 10° S 21:07:15 43° W 21:11:42 10° NNW
ATLAS CENTAUR R/B 1.4 21:04:33 10° SSW 21:07:50 39° SE 21:11:15 10° NE
Kosmos-1783 4.1 21:06:13 10° NW 21:09:19 77° NE 21:15:40 10° SE
Cosmos 1850 Rocket 4.0 21:04:48 10° SSW 21:09:58 66° ESE 21:15:08 10° NNE
Okean 2 4.5 21:08:24 10° SSE 21:11:50 28° E 21:15:18 10° NNE
Cosmos 1655 Rocket 4.1 21:06:12 10° S 21:12:36 82° E 21:19:02 10° NNE
OPS 8737 4.0 21:10:35 10° NW 21:13:32 76° SW 21:16:29 11° SE
Meteor 1-4 Rocket 3.0 21:13:09 10° SSE 21:15:50 31° E 21:18:34 10° NNE
Cosmos 2228 Rocket 3.2 21:11:41 10° S 21:16:14 83° E 21:20:51 10° NNE
MOS 1 Rocket 4.1 21:11:45 10° S 21:17:04 59° W 21:22:16 10° NNW
Cosmos 1953 2.8 21:13:38 10° N 21:17:19 43° ENE 21:20:51 11° SE
Cosmos 1315 Rocket 3.7 21:17:32 10° SSE 21:21:08 34° E 21:24:46 10° NNE
Spot 1 4.3 21:18:12 10° NNE 21:22:40 61° ESE 21:27:23 10° S
Cosmos 968 Rocket 3.6 21:18:21 10° S 21:23:25 61° ESE 21:28:33 10° NNE
SPOT 3 Rocket 4.2 21:19:21 10° S 21:24:23 53° W 21:29:29 10° NNW
SeaSat 1 3.8 21:20:15 10° S 21:24:36 31° WSW 21:29:00 10° NW
Cosmos 2360 Rocket 2.7 21:20:18 10° NW 21:25:50 54° WSW 21:31:19 10° S
Cosmos 1741 Rocket 4.1 21:25:10 10° SSW 21:30:28 87° ESE 21:35:49 10° NNE
Cosmos 1242 Rocket 3.7 21:29:30 12° SE 21:31:05 18° E 21:33:04 10° NE
Cosmos 1814 Rocket 4.2 21:26:52 10° NNW 21:32:09 70° WSW 21:37:16 11° SSE
BlueWalker 3 3.7 21:31:50 12° SSE 21:32:52 14° SE 21:34:47 10° ESE
MetOp-A 4.2 21:28:32 10° SSE 21:33:47 78° WSW 21:39:03 10° NNW
SL-16 R/B 3.9 21:32:49 10° NW 21:37:20 25° WSW 21:41:49 10° SSW
COSMOS 2455 4.4 21:35:30 11° SE 21:39:06 18° ESE 21:43:03 10° ENE
Landsat 5 3.4 21:35:18 10° NNE 21:39:19 83° ESE 21:43:27 10° SSW
USA 234 3.2 21:33:17 10° ENE 21:39:50 70° SSE 21:46:22 10° SW
ALOS 2 4.3 21:37:46 10° ESE 21:41:14 23° ENE 21:44:44 10° N
Cosmos 2333 Rocket 3.0 21:36:14 10° NW 21:41:42 45° WSW 21:47:09 10° S
SL-14 R/B 4.2 21:41:24 10° SSW 21:45:04 46° WNW 21:48:45 10° N
Cosmos 1346 Rocket 4.2 21:43:32 10° NNW 21:47:00 32° W 21:50:26 10° SSW
Cosmos 1703 Rocket 4.1 21:43:33 13° SSE 21:47:21 46° E 21:51:37 10° NNE
Cosmos 1862 Rocket 3.9 21:43:55 10° SSW 21:48:18 67° WNW 21:52:45 10° N
Okean 3 3.6 21:46:49 10° SSW 21:50:57 75° W 21:55:10 10° N
Cosmos 1455 1.9 21:48:41 10° N 21:52:13 89° W 21:55:03 15° S
SL-16 R/B 4.3 21:49:17 10° NNW 21:53:41 22° NNE 21:58:03 10° E
Cosmos 2208 Rocket 4.2 21:48:55 10° NNW 21:54:08 67° ENE 21:58:40 13° SE
Cosmos 1408 3.9 21:55:12 13° SE 21:56:40 18° E 21:58:48 10° NE
Cosmos 1833 4.2 21:52:32 10° SSW 21:58:11 86° ESE 22:03:50 10° NNE
EXPRESS MD2 2.4 21:56:07 10° WSW 21:58:19 36° S 21:59:45 16° ESE
CZ-4C R/B 3.5 21:58:28 13° SE 22:00:32 17° ESE 22:03:50 10° ENE
Cosmos 2237 Rocket 3.1 21:55:48 10° NNW 22:01:15 45° NE 22:06:39 10° ESE
H-2A R/B 3.1 21:58:41 14° SE 22:02:13 49° ENE 22:06:20 10° N
Cosmos 1932 4.5 21:58:30 10° SSW 22:04:46 67° SE 22:11:00 10° NE
Cosmos 2322 3.8 21:59:07 10° NNW 22:04:50 79° WSW 22:09:35 15° SSE
Orbus 7S? 4.2 22:01:56 10° W 22:05:21 41° N 22:07:56 10° ENE
CZ-2C R/B 3.8 22:01:27 10° NNE 22:05:49 58° ESE 22:09:28 14° S
SJ 16-02 1.4 22:01:41 10° SSW 22:06:00 78° WNW 22:10:22 10° NNE
Terra 4.1 22:03:24 10° SW 22:06:38 18° W 22:09:53 10° NW
Cosmos 2227 Rocket 4.3 22:09:57 10° ESE 22:11:22 11° E 22:12:49 10° E
Aureole 3 4.5 22:07:54 10° SSW 22:11:55 51° WNW 22:17:00 10° N
Cosmos 1980 4.2 22:09:00 10° NNW 22:14:36 55° NE 22:20:05 10° SE
Cosmos 371 Rocket 4.4 22:15:49 16° SSE 22:18:41 27° ESE 22:22:45 10° NE
Cosmos 2322 Rocket 4.2 22:15:36 10° WNW 22:19:27 19° W 22:23:19 10° SW
Cosmos 1238 4.4 22:21:05 10° N 22:24:15 87° WSW 22:26:41 19° S
ATLAS 2AS CENTAUR R/B 3.9 22:21:03 10° WNW 22:26:34 27° WSW 22:31:35 11° SSW
ARIANE 5 R/B 2.9 22:23:17 16° S 22:26:36 61° WSW 22:30:56 10° NNW
SL-4 R/B 2.1 22:24:07 10° W 22:27:59 52° SSW 22:31:56 11° ESE
Cosmos 2297 Rocket 3.3 22:27:16 16° SSE 22:30:39 27° ESE 22:35:20 10° NE
Cosmos 1825 4.4 22:32:09 10° E 22:33:09 11° E 22:34:08 10° ENE
Okean 1-7 3.9 22:30:31 10° SSW 22:34:41 46° WNW 22:38:52 10° N
USA 281 3.6 22:34:22 16° S 22:39:39 55° WSW 22:46:08 10° NW
GP-B 3.6 22:35:51 10° N 22:40:11 55° W 22:43:50 14° SSW
Cosmos 1745 Rocket 4.1 22:34:59 14° S 22:40:33 87° E 22:46:59 10° N
Cosmos 1782 Rocket 3.9 22:38:48 10° NNW 22:43:02 56° W 22:46:09 18° S
Cosmos 2219 Rocket 3.6 22:39:38 10° NW 22:44:22 28° WSW 22:48:35 12° SSW
Spot 4 3.9 22:41:21 18° S 22:44:52 80° WSW 22:49:44 10° NNW
Nadezhda 1 Rocket 4.3 22:39:12 10° NNW 22:45:25 62° W 22:50:31 15° S
ATLAS CENTAUR R/B 2.8 22:42:16 10° W 22:45:33 34° NNW 22:48:57 10° NNE
COSMOS 2428 3.2 22:41:19 10° NW 22:46:49 50° WSW 22:50:54 18° S
Meteor 2-5 Rocket 4.2 22:46:15 18° SSE 22:50:34 52° E 22:56:13 10° NNE
BREEZE-M DEB (TANK) 1.3 22:48:41 10° W 22:52:21 84° S 22:54:23 10° E
Cosmos 1953 4.3 22:50:02 10° NW 22:52:52 20° W 22:55:41 10° SW
Cosmos 2098 Rocket 4.2 22:47:07 10° N 22:53:46 74° ENE 22:58:50 17° SSE
Cosmos 2181 Rocket 4.2 22:48:25 10° N 22:54:36 63° ENE 22:59:29 16° SSE
H-2A R/B 3.5 22:53:16 10° NE 22:56:47 24° E 22:59:07 16° SE
PSLV R/B 4.3 22:54:28 10° N 22:58:25 59° WNW 23:01:43 14° SSW
Cosmos 1300 Rocket 4.2 22:56:04 10° NNW 23:00:11 46° W 23:03:09 18° SSW
Cosmos 1242 Rocket 3.9 23:00:40 10° SW 23:02:58 23° WNW 23:05:17 10° NNW
Cosmos 2263 Rocket 4.3 23:02:21 10° ESE 23:03:39 11° E 23:04:57 10° E
Cosmos 304 Rocket 4.0 23:03:17 20° S 23:06:27 56° ESE 23:11:07 10° NNE
Cosmos 2151 Rocket 3.8 23:04:02 10° N 23:08:26 64° ENE 23:11:26 19° SSE
Cosmos 405 Rocket 2.6 23:06:04 10° NNW 23:09:51 85° ENE 23:12:07 23° SSE
BlueWalker 3 2.0 23:06:45 10° SW 23:10:21 47° SSE 23:13:59 10° E
Okean 2 Rocket 3.3 23:10:31 10° N 23:14:59 68° ENE 23:18:04 20° SSE
ALOS 2 3.0 23:14:27 20° S 23:17:17 55° W 23:21:37 10° NNW
Cosmos 1674 Rocket 4.0 23:20:04 21° SSE 23:22:46 50° E 23:26:58 10° NNE
USA 234 3.6 23:16:24 10° ENE 23:22:55 70° NNW 23:29:26 10° W
Cosmos 1378 Rocket 3.8 23:20:47 21° S 23:23:30 59° E 23:27:50 10° NNE
COSMOS 2455 2.8 23:18:34 12° SSW 23:24:08 78° SE 23:30:12 10° NE
CENTAUR R/B 3.5 23:24:42 18° SSE 23:28:01 29° ESE 23:33:50 10° ENE
Cosmos 1408 3.7 23:27:13 14° SW 23:29:13 28° WNW 23:31:52 10° N
Cosmos 1263 4.5 23:26:22 10° N 23:30:09 74° ENE 23:31:55 25° SSE
Cosmos 1703 3.8 23:34:51 18° SW 23:37:20 48° WNW 23:40:56 10° N
H-2A R/B 4.2 23:34:40 14° SW 23:37:22 23° W 23:40:48 10° NW
Cosmos 2221 Rocket 3.8 23:34:53 21° S 23:37:43 64° E 23:42:08 10° NNE
SL-16 R/B 2.5 23:33:09 10° NNW 23:38:51 68° NE 23:44:31 10° SE
Cosmos 1174 4.4 23:34:08 10° NW 23:39:08 53° WSW 23:41:41 22° S
Cosmos 1892 2.6 23:37:30 25° S 23:39:21 63° E 23:42:51 10° NNE
Sich 1 Rocket 3.6 23:36:10 10° NNW 23:40:35 72° W 23:43:22 22° S
Nadezhda 3 Rocket 4.2 23:35:41 10° N 23:41:58 67° ENE 23:47:09 15° SSE
Cosmos 1328 4.5 23:42:44 20° SSE 23:45:00 43° E 23:48:42 10° NNE
SJ 16-02 4.0 23:42:32 10° W 23:45:07 15° NW 23:47:44 10° N
Cosmos 2237 Rocket 2.7 23:40:00 10° NW 23:45:21 44° WSW 23:48:59 19° S
Cosmos 1538 Rocket 4.1 23:41:11 10° NNW 23:46:24 77° ENE 23:50:57 14° SSE
Cosmos 1777 Rocket 4.0 23:43:34 18° SSW 23:47:35 87° ESE 23:52:55 10° NNE
CZ-4C R/B 2.0 23:43:29 13° SW 23:47:44 84° SE 23:53:45 10° NE
Cosmos 1503 Rocket 4.1 23:43:27 16° SSW 23:47:46 82° WNW 23:53:06 10° NNE
BREEZE-M DEB (TANK) 3.1 23:40:04 10° W 23:48:35 49° SSW 23:51:34 10° SE
GEOS 3 Rocket 4.2 23:48:52 10° NE 23:53:42 39° SE 23:56:49 20° S
Cosmos 2227 Rocket 2.4 23:50:16 19° S 23:54:13 58° ESE 23:59:47 10° NE
